Julian Romero

Recruteur - Atletico Nacional
24 Févr 2027
Mercredi
Processus

Personnalité

Adaptabilité (1) Ambition (17) Controverse (14) Loyauté (2) Pression (20) Professionnalisme (13) Sportivité (4) Tempérament (20)

Profil

Style d'entraînement Démocratique
Diplôme Continental B
Détermination 10
Gestion des joueurs 7
Motivation 6
Discipline 7
Satisfaction professionnelle
83%
Fatigue
0%
Rôle Recruteur
Salaire 93.6K p/s
Contrat 14.03.2030

Performance

Comportement Bon
Efficacité de l'entraînement
35%
Développement des joueurs
25%
Prévention des blessures
50%
Mise en place tactique
35%

Événements récents

A participé à une réunion de recrutement 14j
A participé à une réunion de recrutement 21j
A participé à une réunion de recrutement 28j
En formation continue 35j
A participé à une réunion de recrutement 35j
En formation continue 35j
En formation continue 35j
En formation continue 42j

Suivi en cours

93
Joueur Club Statut Capacité Confiance Observé Dernière observation Dernier vote
Siro Rosané Estudiantes Actif 120 / 119 40% 1 29.11.2026 -
Adrián Sánchez Belgrano Actif 121 / 131 40% 1 29.11.2026 -
Iván Martín Racing Club Actif 151 / 142 40% 6 28.11.2026 -
Agustín Sández Rosario Central Actif 124 / 118 40% 1 28.11.2026 -
Franco Ibarra Rosario Central Actif 136 / 136 40% 2 26.11.2026 -
Mauro Arambarri River Plate Actif 144 / 153 40% 2 25.11.2026 -
Rodrigo Huescas FC Copenhagen Actif 138 / 119 40% 1 25.11.2026 -
Marcelo Allende Mamelodi Sundowns Actif 120 / 144 40% 1 24.11.2026 -
Haissem Hassan Bloemfontein Celtic Actif 138 / 125 40% 1 24.11.2026 -
Pablo Maffeo Olympiacos Actif 143 / 139 40% 4 23.11.2026 -
Tyrell Malacia Leicester City Actif 147 / 136 40% 1 20.11.2026 -
Alfie Doughty Millwall Actif 135 / 146 40% 1 19.11.2026 -
Kevin Lomónaco Independiente Actif 131 / 133 40% 1 19.11.2026 -
Alejandro Piedrahita Deportivo Pereira Actif 117 / 128 40% 3 17.11.2026 -
Alan Velasco Boca Juniors Actif 121 / 125 40% 1 17.11.2026 -
Eduardo Darias Penarol Actif 128 / 126 40% 2 16.11.2026 -
Mathias Jensen Brentford Actif 157 / 128 40% 1 16.11.2026 -
Kirian Wolverhampton Refusé 147 / 123 40% 1 15.11.2026 Plus d'infos
Matko Miljevic Racing Club Actif 116 / 136 40% 1 15.11.2026 -
Santiago Longo Belgrano Actif 127 / 134 40% 4 14.11.2026 -
Tomás Silva Platense Actif 118 / 115 40% 2 14.11.2026 -
Nicolás Tripichio San Lorenzo Actif 116 / 115 40% 3 09.11.2026 -
Ángel Correa River Plate Perdu 146 / 141 40% 2 07.11.2026 -
Percy Erasmus SuperSport United Actif 129 / 104 40% 1 06.11.2026 -
Alan Lescano Argentinos Juniors Actif 131 / 135 40% 1 04.11.2026 Plus d'infos
Julio Alonso Huesca Actif 137 / 123 40% 1 03.11.2026 Plus d'infos
Nazareno Colombo Racing Club Actif 127 / 130 40% 1 31.10.2026 -
Fernando Gorriarán Tigres Actif 144 / 150 40% 1 30.10.2026 -
César Ibáñez Huracán Actif 123 / 134 40% 2 28.10.2026 -
Facundo Miño Deportivo Riestra Actif 125 / 131 40% 1 28.10.2026 -
Lucas Souto Defensa y Justicia Actif 116 / 126 40% 1 28.10.2026 -
Juan Bisanz Huracán Actif 136 / 122 40% 1 26.10.2026 -
Felipe Peña Biafore Lanús Actif 119 / 135 40% 2 22.10.2026 -
Axel Openda KV Oostende Actif 135 / 112 40% 1 22.10.2026 -
Nicolás Fernández Belgrano Actif 141 / 133 40% 1 22.10.2026 -
Vicente Poggi Godoy Cruz Actif 120 / 117 40% 1 22.10.2026 -
Marcos López San Martín Actif 137 / 125 40% 2 21.10.2026 -
Leandro Lozano Boca Juniors Actif 114 / 133 40% 2 20.10.2026 -
Edwuin Cetré Estudiantes Actif 113 / 121 40% 1 20.10.2026 -
Gabriel Neves Estudiantes Actif 115 / 138 40% 2 19.10.2026 -
Emanuel Coronel Rosario Central Actif 121 / 119 40% 2 19.10.2026 -
Leonardo Godoy Independiente Actif 138 / 129 40% 1 18.10.2026 -
Matías Galarza Talleres Actif 132 / 115 40% 1 17.10.2026 -
Gastón Benedetti Estudiantes Actif 112 / 126 40% 1 17.10.2026 -
Francisco Álvarez Argentinos Juniors Actif 122 / 115 40% 1 12.10.2026 -
Santiago Cáseres Basel Actif 137 / 115 40% 1 10.10.2026 -
Joaquín García Vélez Actif 137 / 128 40% 1 09.10.2026 -
Thiago Almada River Plate Actif 153 / 151 40% 1 08.10.2026 -
Aarón Molinas Defensa y Justicia Actif 127 / 136 40% 1 08.10.2026 -
Ivan Edson Veracruz Actif 127 / 132 40% 2 06.10.2026 -
Santiago Ascacíbar Boca Juniors Actif 129 / 119 40% 1 06.10.2026 -
Richard Ledezma Guadalajara Actif 131 / 154 40% 2 02.10.2026 -
Luca Orellano Monterrey Actif 137 / 143 40% 3 02.10.2026 -
Luís Esteves Atlas Actif 134 / 126 40% 2 01.10.2026 -
Damián Fernández Defensa y Justicia Actif 125 / 133 40% 1 30.09.2026 -
Aarón Quiros Vélez Actif 130 / 127 40% 1 30.09.2026 -
Jaminton Campaz Rosario Central Actif 137 / 133 40% 1 30.09.2026 -
Brian Rodríguez Club America Actif 130 / 121 40% 1 30.09.2026 -
Sebastián Córdova Pumas UNAM Actif 129 / 121 40% 2 29.09.2026 -
Santiago Montiel Independiente Actif 116 / 137 40% 1 29.09.2026 -
Martín Ortega Newell's Old Boys Actif 122 / 131 40% 1 27.09.2026 -
Erik Lira Cruz Azul Actif 154 / 116 40% 2 23.09.2026 -
Diego Campillo Guadalajara Actif 132 / 104 40% 1 23.09.2026 -
Fernando Valenzuela Queretaro Actif 116 / 118 40% 1 20.09.2026 -
Alexis Vega Toluca Actif 156 / 141 40% 2 18.09.2026 -
Jesús Ricardo Angulo Toluca Actif 146 / 116 40% 1 18.09.2026 -
Víctor Guzmán Monterrey Actif 134 / 116 40% 2 17.09.2026 -
Franco Romero Toluca Actif 109 / 116 40% 1 17.09.2026 -
Agustín Palavecino Cruz Azul Actif 135 / 125 40% 1 15.09.2026 -
Lukáš Provod Slavia Prague Actif 133 / 144 40% 1 15.09.2026 -
Manuel Capasso Atlas Actif 120 / 124 40% 1 14.09.2026 -
Ricardo Chávez Monterrey Actif 142 / 110 40% 1 14.09.2026 -
Franco Pardo Santos Laguna Actif 122 / 114 40% 1 13.09.2026 -
Bryan González Guadalajara Actif 136 / 122 40% 1 12.09.2026 -
Juan Brunetta Tigres Actif 159 / 138 40% 1 12.09.2026 -
Sebastián Cáceres Club America Actif 116 / 120 40% 1 12.09.2026 -
Nathan Silva Pumas UNAM Actif 119 / 130 40% 1 12.09.2026 -
Tomás Alarcón Colo-Colo Actif 116 / 122 40% 1 10.09.2026 -
Nicolás Fonseca Leon Actif 144 / 110 40% 1 10.09.2026 -
Gerardo Arteaga Monterrey Actif 147 / 142 40% 2 09.09.2026 -
Alejandro Zendejas Club America Actif 136 / 147 40% 1 07.09.2026 -
Fidel Ambríz Monterrey Actif 107 / 119 40% 1 28.08.2026 -
Carlos Rodríguez Cruz Azul Actif 134 / 142 40% 1 27.08.2026 -
Cesar Corona Veracruz Actif 121 / 122 40% 1 27.08.2026 -
Brian Gutiérrez Guadalajara Actif 120 / 145 40% 1 16.08.2026 -
Jesús Angulo Tigres Actif 118 / 155 40% 1 16.08.2026 -
Cristian Montero Veracruz Actif 141 / 111 40% 1 10.08.2026 -
Adonis Frías Atlas Actif 124 / 139 40% 1 08.08.2026 -
Bruno Méndez Toluca Actif 111 / 129 40% 1 04.08.2026 -
Iván Rodríguez Leon Actif 131 / 145 40% 1 04.08.2026 -
Efraín Álvarez Guadalajara Actif 125 / 127 40% 1 04.08.2026 -
Pep Biel Charlotte Football Club Actif 134 / 128 40% 1 02.08.2026 -
Juan Otero Gijón Actif 125 / 118 40% 1 02.08.2026 -